Probability
22 21 19 18 16 14 12 12 11 7 4 4 4 4 3 4 5 6 5 4 4 4 4 3 3 3 3 3 3 3 3 3 3 2 1 0 1 0 0 0 0 0 0
23 22 21 20 19 17 15 13 10 8 7 6 6 6 5 5 6 5 4 4 4 5 4 3 3 3 3 3 3 3 3 3 3 2 1 1 1 1 0 0 0 0 0
23 23 23 23 23 21 18 15 12 11 11 10 10 9 8 8 8 6 5 5 5 5 4 3 3 3 3 3 4 4 4 3 2 1 0 1 1 1 0 0 0 0 0
22 22 23 24 24 23 21 18 16 15 15 14 13 11 10 9 8 8 7 6 5 4 3 3 3 3 3 4 5 6 5 3 1 0 0 0 0 0 0 1 1 1 0
21 21 22 23 23 23 23 22 19 18 18 17 15 13 11 9 7 7 8 7 6 5 5 5 4 3 4 5 6 7 6 3 1 0 0 0 1 1 1 2 3 2 2
22 21 22 22 24 25 25 23 20 19 18 18 17 16 14 10 6 4 5 8 8 8 8 7 7 5 5 4 5 4 4 3 2 2 2 2 2 3 3 3 4 4 4
25 24 23 24 25 26 25 22 20 18 18 18 18 17 16 12 6 2 2 6 9 10 9 9 10 9 8 6 6 4 3 3 4 5 5 3 3 4 4 4 5 5 5
29 27 25 26 27 26 24 22 21 20 20 20 19 18 17 11 4 0 1 4 9 10 9 10 12 12 10 8 7 6 5 4 4 4 4 3 3 3 4 5 5 5 5
31 29 27 27 28 25 23 23 24 23 22 22 21 20 17 12 5 1 1 4 8 8 8 9 11 10 8 6 5 5 4 4 3 2 1 2 2 2 3 4 4 4 4
31 30 28 27 26 25 24 25 25 24 23 23 23 21 18 13 7 2 2 5 7 6 5 7 8 6 4 2 2 3 3 3 3 2 1 1 2 2 2 3 3 3 3
26 26 25 24 23 24 23 22 22 22 22 22 21 19 15 10 6 2 1 4 6 5 4 5 4 3 1 0 1 2 2 3 3 3 3 2 2 2 3 3 3 3 3
18 19 20 20 20 20 19 18 18 19 19 18 17 14 10 5 2 0 0 2 3 4 3 3 2 1 0 0 0 1 1 1 3 3 3 3 3 3 3 3 3 3 3
15 16 17 18 19 18 16 16 16 16 15 14 12 9 5 3 1 0 0 0 1 2 2 1 0 0 0 0 0 0 0 1 2 3 3 3 3 3 3 3 3 3 3
16 15 16 18 19 17 14 13 13 13 11 10 8 5 4 2 1 0 0 0 0 1 1 0 0 0 0 0 0 0 0 1 2 3 3 3 3 3 3 3 3 3 3
14 14 15 16 17 14 10 8 8 8 7 6 5 4 3 2 1 0 0 0 0 0 0 0 0 0 0 0 0 0 0 0 1 3 3 3 3 3 3 3 3 3 3
13 14 15 15 15 11 6 4 4 5 4 4 3 3 3 2 1 0 0 0 0 0 0 0 0 0 0 0 0 0 0 0 1 2 3 3 3 3 3 3 3 3 3
13 14 15 15 13 9 5 3 3 3 3 2 2 2 2 1 0 0 0 0 0 0 0 0 0 0 0 1 1 1 0 0 0 1 2 2 3 3 3 3 3 3 3
14 15 15 14 12 8 4 3 3 3 3 2 1 1 1 0 0 0 0 0 0 0 0 0 0 0 0 1 2 1 0 0 0 0 1 1 1 2 2 3 3 3 3
14 14 13 12 10 7 4 3 3 3 3 3 1 0 0 0 0 0 0 0 0 0 0 0 0 0 0 1 2 2 0 0 0 0 0 0 0 1 1 1 2 2 2
13 12 11 10 9 6 4 3 3 3 3 3 2 1 0 0 0 0 0 0 0 0 0 0 0 0 0 1 2 1 0 0 0 0 0 0 0 0 0 0 1 2 2
12 11 10 10 8 5 3 3 3 3 3 3 2 1 0 0 0 0 0 0 0 0 0 0 0 0 1 2 1 0 0 0 0 0 0 0 0 0 0 0 1 2 2
10 9 9 9 7 4 3 3 3 3 3 3 2 1 0 0 0 0 0 0 0 0 0 0 0 1 2 2 1 0 0 0 0 0 0 0 0 0 0 0 1 1 1
8 8 8 7 5 3 3 3 3 3 4 3 2 1 0 0 0 0 0 0 0 0 0 0 0 1 2 2 1 0 0 0 0 0 0 0 0 0 0 0 0 0 0
7 7 6 5 3 2 2 2 2 3 3 2 1 0 0 0 0 0 0 0 0 0 0 0 0 0 1 1 0 0 0 0 0 0 0 0 0 0 0 0 0 0 0
6 5 5 3 1 0 1 1 1 1 1 1 0 0 0 0 0 0 0 0 0 0 0 0 0 0 0 0 0 0 0 0 0 0 0 0 0 0 0 0 0 0 0
4 4 2 1 0 0 0 0 0 0 0 0 0 0 0 0 0 0 0 0 0 0 0 0 0 0 0 0 0 0 0 0 0 0 0 0 0 0 0 0 0 0 0
Wind_Speed
8 7 6 6 6 5 5 5 4 3 4 3 3 3 3 3 3 2 2 2 3 2 2 3 3 3 2 2 3 3 3 4 4 3 2 2 2 3 2 2 2 2 2
7 7 6 6 5 5 5 4 4 4 4 4 3 3 3 3 3 3 3 3 3 3 3 3 3 2 3 2 2 3 3 4 4 4 2 2 2 2 2 2 2 2 2
7 7 7 6 6 6 5 4 4 4 3 3 3 3 3 3 3 3 3 3 3 3 3 3 3 3 3 3 3 3 3 3 3 3 3 1 1 1 1 1 2 2 2
8 7 7 7 7 6 5 5 5 4 4 4 3 3 3 3 3 2 2 2 3 3 3 4 4 4 4 4 3 3 3 2 2 2 2 1 1 1 1 1 1 1 2
7 7 7 6 6 6 5 5 5 5 5 4 4 3 3 3 3 2 2 2 3 3 3 4 4 4 5 4 3 3 3 3 2 2 2 1 1 1 1 2 2 2 2
7 7 6 6 6 6 6 5 5 5 4 4 4 4 4 3 3 4 3 2 3 3 4 4 3 3 3 3 3 3 4 4 4 3 2 2 3 3 2 2 2 1 2
8 7 6 6 6 6 6 5 5 5 4 4 4 4 4 4 5 5 4 3 3 3 3 3 3 2 2 2 2 2 2 4 5 5 4 4 3 4 3 3 3 3 3
7 7 6 6 6 6 5 6 5 4 4 4 4 4 4 4 5 4 4 3 2 3 3 3 3 3 3 3 2 2 2 2 4 4 4 4 4 4 4 4 4 3 2
6 6 6 6 6 5 6 5 4 4 4 4 3 4 4 4 5 4 3 2 2 2 2 3 3 3 3 2 2 2 2 2 2 3 3 3 3 3 3 2 2 2 2
5 5 5 5 6 6 6 4 3 4 4 4 3 3 4 4 4 4 4 2 1 1 1 2 2 2 2 2 3 3 3 3 2 1 1 2 2 2 2 3 3 3 2
3 3 3 4 5 5 4 3 3 3 3 2 2 1 2 2 3 4 4 2 2 2 1 1 1 1 1 2 3 3 4 3 2 1 1 1 1 1 1 2 3 4 3
2 3 3 3 3 4 4 4 4 4 3 2 2 1 0 1 1 2 4 4 3 2 2 1 1 1 1 1 1 2 2 2 1 1 1 1 1 2 2 2 3 4 4
2 2 3 3 3 3 4 4 3 3 3 2 2 1 1 1 1 0 2 2 2 1 1 1 1 2 1 0 0 1 1 1 1 1 2 2 2 2 2 1 1 2 2
3 2 3 3 3 3 3 3 3 3 3 2 2 2 1 0 0 1 0 1 1 1 0 1 2 2 2 2 1 1 0 0 1 2 2 1 1 1 1 1 1 1 1
3 2 3 3 3 3 3 2 3 2 3 4 3 3 3 1 1 1 1 1 1 1 1 1 2 2 1 1 1 1 0 0 0 1 1 1 1 1 1 1 1 1 1
3 2 2 3 3 3 3 3 4 3 3 3 3 4 2 2 2 2 2 2 2 3 3 1 1 1 1 1 1 1 1 1 1 1 1 1 1 2 2 1 1 1 2
3 3 3 3 3 3 3 3 2 3 5 4 3 3 3 2 2 2 2 3 3 4 2 1 0 1 1 1 1 1 1 1 1 1 1 2 2 1 2 2 2 2 2
3 3 3 3 3 3 3 3 3 3 2 1 2 3 3 3 3 2 3 4 3 2 1 1 1 1 1 1 2 2 2 1 1 1 1 1 1 1 2 2 2 3 3
3 2 3 3 3 3 3 3 3 3 2 2 1 1 2 2 3 3 3 2 1 1 1 1 2 2 2 2 2 2 2 1 1 1 1 1 1 1 2 2 3 3 3
2 4 4 3 3 3 3 3 3 3 2 2 1 1 1 2 1 1 1 1 1 1 1 2 2 2 2 2 2 2 1 1 2 2 1 1 1 2 2 3 3 3 2
2 3 4 3 3 3 2 2 3 3 2 2 2 2 3 2 2 2 1 1 1 2 2 2 2 2 2 2 2 2 2 1 2 2 2 1 1 2 2 2 2 3 2
2 2 2 2 2 2 2 2 2 2 2 2 1 1 3 2 2 2 2 2 2 2 2 2 1 2 2 2 2 2 1 1 1 2 2 2 2 2 2 2 2 2 2
3 3 2 2 2 2 2 2 2 2 1 2 2 1 2 2 2 2 2 2 1 1 1 1 1 1 1 1 1 1 1 2 2 2 1 2 2 2 1 2 2 3 3
3 3 3 2 2 2 2 1 1 1 1 2 2 2 2 2 2 2 1 1 1 1 0 0 0 1 2 1 1 1 1 1 2 1 1 1 1 1 1 2 2 3 3
3 3 3 3 2 2 2 2 2 2 2 2 2 2 2 1 1 1 1 1 1 0 0 0 0 1 1 2 2 1 1 1 1 1 1 1 1 1 2 2 2 2 2
3 3 3 2 3 2 2 2 2 2 1 1 1 1 1 1 1 1 1 1 1 1 0 0 1 1 1 1 1 1 1 1 1 1 0 0 0 1 2 2 2 2 2
Wind_Direction
186 185 183 184 185 182 187 194 195 194 190 195 199 204 202 206 206 201 213 216 215 232 232 221 229 220 214 213 207 207 210 208 237 259 241 253 242 255 260 237 243 242 257
183 178 181 178 174 180 189 192 188 190 191 194 195 200 209 213 209 208 221 226 220 227 238 230 239 227 223 222 214 217 218 214 222 253 256 241 245 254 250 240 252 245 248
176 177 179 181 180 188 194 190 188 192 193 193 192 204 213 216 217 220 222 227 228 232 235 233 239 227 231 227 219 224 229 224 217 230 248 241 258 281 279 265 258 260 260
174 180 186 190 190 193 193 190 191 190 191 196 201 209 213 213 215 219 224 229 235 241 240 237 237 229 228 227 224 225 220 213 210 223 235 242 251 278 266 267 275 259 259
173 184 194 193 187 187 189 192 193 194 198 197 197 207 212 211 217 211 218 230 237 250 251 245 241 229 226 222 223 218 206 202 199 214 233 228 232 236 246 245 254 264 248
176 189 190 188 188 191 192 188 191 197 198 196 202 205 213 225 221 210 207 222 235 243 253 258 252 238 236 233 231 216 202 199 204 203 217 236 244 234 232 233 236 258 269
179 186 187 190 193 196 195 189 196 199 194 201 209 210 218 227 217 213 216 216 232 243 247 256 262 260 245 244 245 228 214 207 199 193 205 227 237 233 222 228 228 235 248
178 188 190 191 196 194 191 199 203 198 198 205 211 214 220 230 216 213 216 210 231 248 251 247 247 260 254 230 219 232 245 240 218 205 210 225 234 234 221 222 226 233 259
188 194 196 193 194 192 195 200 199 189 197 202 206 209 220 235 221 216 199 186 221 259 269 263 250 247 253 217 199 217 245 262 239 201 209 235 243 241 214 200 203 206 242
201 201 196 191 192 197 198 193 186 185 198 198 207 210 213 227 226 213 187 177 200 253 289 293 276 253 238 201 205 210 226 246 260 289 287 291 277 260 212 211 211 212 216
194 181 178 183 185 187 184 177 170 176 179 187 192 205 207 220 223 210 192 185 194 214 260 294 298 267 219 203 204 215 227 230 225 222 249 277 284 280 249 236 228 219 214
156 159 168 172 178 171 160 162 161 162 166 172 164 177 285 252 224 219 208 202 189 185 224 263 284 277 231 214 213 233 222 202 188 198 244 271 277 275 269 256 248 240 232
142 163 168 161 161 159 161 161 157 154 163 172 169 178 247 317 356 323 207 198 191 191 224 243 302 323 332 357 333 258 209 183 181 211 243 256 259 260 267 260 260 255 249
148 161 156 150 145 145 153 158 161 166 167 168 172 182 199 218 38 42 65 128 134 143 124 69 52 42 39 41 33 38 322 225 214 231 253 271 288 281 276 268 247 262 262
143 144 144 148 147 141 137 145 159 169 174 176 182 178 175 192 236 197 163 177 182 173 130 87 57 36 30 14 11 24 14 40 284 283 276 278 289 298 293 286 266 252 248
146 153 154 143 137 134 125 93 60 82 103 129 157 168 176 181 170 162 163 150 134 132 112 92 62 33 316 295 295 307 306 296 284 277 274 264 271 288 297 294 271 249 253
157 158 147 137 135 136 136 136 120 62 62 68 86 124 139 130 124 136 123 102 102 120 108 118 230 263 285 290 285 282 283 288 289 279 270 268 269 281 284 277 266 263 267
146 145 140 142 143 143 142 143 145 145 128 67 50 91 112 119 119 123 121 102 83 91 146 225 263 273 281 286 282 280 283 288 283 280 274 280 286 285 290 284 266 260 264
146 146 141 138 139 139 138 138 140 144 148 144 96 51 77 95 91 96 119 117 138 169 218 251 265 268 272 271 268 269 272 278 280 274 280 289 289 289 289 292 286 272 264
139 143 138 135 134 133 138 141 143 149 156 164 181 186 131 107 104 107 130 151 171 212 237 252 266 269 271 278 279 274 273 283 290 286 282 278 280 278 286 293 294 293 289
137 135 131 127 132 140 147 157 162 166 172 180 202 204 178 172 179 182 189 199 211 228 242 255 270 276 278 281 279 273 270 281 286 287 287 278 274 275 283 287 289 291 302
132 132 134 136 135 136 146 156 162 173 182 187 206 201 187 189 187 187 203 223 231 237 242 248 267 282 285 282 281 276 266 271 289 295 293 289 284 278 281 289 297 301 304
147 146 137 130 129 132 136 149 165 181 195 205 203 198 188 200 203 207 215 229 242 251 256 250 265 294 316 313 297 282 279 284 286 292 296 294 293 290 286 283 287 297 304
154 149 146 143 139 143 152 166 176 183 189 201 202 202 209 215 218 225 231 231 236 262 280 288 301 329 347 354 347 341 322 318 309 280 272 277 291 298 298 300 300 301 305
153 151 156 162 161 159 162 173 179 180 189 204 196 191 203 207 214 226 228 203 190 190 44 13 358 329 331 343 349 356 346 349 347 332 292 270 295 311 314 311 314 321 321
153 161 170 171 170 172 179 187 193 195 205 213 203 200 206 209 217 229 220 189 185 194 242 288 297 292 304 317 330 8 31 23 15 336 288 214 296 315 320 308 312 314 314